Weather in Stary Achkhoy

Russia / Chechen Republic     43°07′52″N   45°18′03″E
temp.,
°C
wind,
m/s
gust,
m/s
humid.,
%
clouds,
%
prec.,
mm/h
press.,
hPa
HPBL,
m
9 march, tue
tue900:00+1sse1188100 0.0 101827
03:00−1ssw008977 0.0 101821
06:00−1wsw118372 0.0 101821
09:00+3ne005882 0.0 1017423
12:00+6e334220 0.0 10161095
15:00+7e213710 0.0 10151462
18:00+5ese124439 0.0 101822
21:00+4w125365 0.0 102023
10 march, wed
wed1000:00+1nnw239599 0.6 1021276
03:00+1w0198100 3.4 102364
06:000sw1297100 1.0 1024161
09:00+2nw1284100 1.7 1024481
12:00+4n3456100 0.4 10221140
15:00+4n3351100 0.4 10221210
18:00+3ene2361100 0.1 1022120
21:00+2e2468100 0.1 1023223
11 march, thu
thu1100:000ene4670100 0.1 1022730
03:00−1e4866100 0.3 1021748
06:00−3ene4787100 0.3 1020551
09:00−2ene5788100 1.1 1020577
12:00−1ene5788100 1.2 1018623
15:00−2ne71090100 3.2 1017769
18:00−5ene61093100 1.8 1018724
21:00−6ne5894100 3.1 1019578
12 march, fri
fri1200:00−6ne4795100 1.6 1018495
03:00−7nne4795100 3.8 1018454
06:00−7ne4795100 1.8 1020497
09:00−6ne4694100 3.4 1023517
12:00−5ne5793100 1.4 1023609
15:00−6ne5794100 3.1 1024612
18:00−8ene4796100 1.8 1027503
21:00−9ene2596100 2.8 1030311
13 march, sat
sat1300:00−10e2397100 0.3 103179
03:00−12ese1197100 0.4 103121
06:00−13sw1195100 0.1 103321
09:00−9e129097 0.1 1032304
12:00−6e3487100 0.1 1031589
15:00−5e3488100 0.2 1030606
18:00−8e239596 0.1 103070
21:00−10se129798 0.2 103121